Location: Cossonay
(46.5833°N, 6.4167°E)
Time: 22:21:26
(UTC+00:00)

CBERS-1 - Pass Details

Date: 07 October 2020
Orbit: 770 x 777 km, 98.6° (Epoch: 22 October)

Event Time Altitude Azimuth Distance (km) Brightness Sun altitude
Rises 01:43:36 0° 16° (NNE) 3,260 7.9 -39.0°
Reaches altitude 10° 01:45:57 10° 20° (NNE) 2,330 7.1 -38.7°
Enters shadow 01:47:38 21° 25° (NNE) 1,689 6.2 -38.5°
